| time (UTC) | temp F | wind direction | speed MPH | gust MPH | rain 1hr in | rain 24hr in | rain mn in | humidity % | barometer mb |
| 20260503180509 | 51 | 246 | 3.0 | 18.0 | 0.00 | 0.05 | 0.00 | 56 | 1006.6 |
| 20260503180009 | 50 | 332 | 8.0 | 20.0 | 0.00 | 0.05 | 0.00 | 56 | 1006.7 |
| 20260503175508 | 50 | 354 | 8.0 | 20.0 | 0.00 | 0.05 | 0.00 | 56 | 1006.6 |
| 20260503175007 | 50 | 103 | 8.0 | 21.0 | 0.00 | 0.05 | 0.00 | 55 | 1006.5 |
| 20260503174507 | 51 | 237 | 9.0 | 18.0 | 0.00 | 0.05 | 0.00 | 55 | 1006.4 |
| 20260503174007 | 52 | 311 | 8.0 | 16.0 | 0.00 | 0.05 | 0.00 | 57 | 1006.3 |
| 20260503173505 | 51 | 323 | 4.0 | 15.0 | 0.00 | 0.05 | 0.00 | 57 | 1006.3 |
| 20260503173006 | 50 | 268 | 8.0 | 20.0 | 0.00 | 0.05 | 0.00 | 56 | 1006.4 |
| 20260503172504 | 51 | 307 | 10.0 | 20.0 | 0.00 | 0.05 | 0.00 | 57 | 1006.3 |
| 20260503172008 | 51 | 56 | 5.0 | 17.0 | 0.00 | 0.05 | 0.00 | 59 | 1006.3 |
| 20260503171504 | 51 | 289 | 6.0 | 20.0 | 0.00 | 0.05 | 0.00 | 58 | 1006.3 |
| 20260503171004 | 51 | 354 | 6.0 | 20.0 | 0.00 | 0.05 | 0.00 | 58 | 1006.3 |
| 20260503170503 | 51 | 294 | 5.0 | 17.0 | 0.00 | 0.05 | 0.00 | 59 | 1006.2 |
| 20260503150547 | 45 | 279 | 8.0 | 18.0 | 0.00 | 0.05 | 0.00 | 81 | 1006.5 |
| 20260503131038 | 46 | 291 | 3.0 | 12.0 | 0.00 | 0.08 | 0.00 | 82 | 1007.0 |
| 20260503130539 | 46 | 339 | 4.0 | 11.0 | 0.00 | 0.08 | 0.00 | 82 | 1007.0 |
| 20260503110523 | 41 | 292 | 0.0 | 9.0 | 0.00 | 0.18 | 0.00 | 89 | 1007.3 |
| 20260503090504 | 41 | 291 | 1.0 | 8.0 | 0.00 | 0.19 | 0.00 | 90 | 1007.6 |
| 20260503081559 | 41 | 300 | 1.0 | 7.0 | 0.00 | 0.19 | 0.00 | 91 | 1008.5 |
| 20260503081055 | 41 | 301 | 3.0 | 7.0 | 0.00 | 0.19 | 0.00 | 91 | 1008.5 |
| 20260503080554 | 41 | 266 | 1.0 | 6.0 | 0.00 | 0.19 | 0.00 | 91 | 1008.4 |
| 20260503072552 | 42 | 261 | 1.0 | 7.0 | 0.00 | 0.19 | 0.00 | 91 | 1008.8 |
| 20260503072052 | 42 | 267 | 1.0 | 7.0 | 0.00 | 0.19 | 0.00 | 91 | 1008.8 |
| 20260503071549 | 42 | 281 | 1.0 | 7.0 | 0.00 | 0.19 | 0.00 | 91 | 1008.7 |
| 20260503071048 | 42 | 267 | 1.0 | 4.0 | 0.00 | 0.19 | 0.00 | 91 | 1008.9 |
| 20260503070550 | 42 | 266 | 1.0 | 4.0 | 0.00 | 0.19 | 0.00 | 91 | 1009.0 |
| 20260503060108 | 42 | 283 | 1.0 | 4.0 | 0.00 | 0.19 | 0.00 | 91 | 1009.8 |
| 20260503055038 | 43 | 285 | 0.0 | 4.0 | 0.00 | 0.19 | 0.00 | 91 | 1009.6 |
| 20260503054554 | 43 | 281 | 1.0 | 6.0 | 0.00 | 0.19 | 0.00 | 91 | 1009.8 |
| 20260503054039 | 43 | 298 | 1.0 | 5.0 | 0.00 | 0.19 | 0.00 | 91 | 1009.8 |
| 20260503053536 | 43 | 283 | 2.0 | 5.0 | 0.00 | 0.19 | 0.00 | 91 | 1009.9 |
| 20260503053040 | 43 | 321 | 0.0 | 3.0 | 0.00 | 0.19 | 0.00 | 91 | 1010.0 |
| 20260503052534 | 44 | 322 | 0.0 | 2.0 | 0.00 | 0.19 | 0.00 | 91 | 1009.9 |
| 20260503052032 | 44 | 322 | 0.0 | 3.0 | 0.00 | 0.19 | 0.00 | 91 | 1010.0 |
| 20260503051532 | 44 | 359 | 0.0 | 3.0 | 0.00 | 0.19 | 0.00 | 91 | 1010.0 |
| 20260503051030 | 44 | 322 | 0.0 | 3.0 | 0.00 | 0.19 | 0.00 | 91 | 1010.1 |
| 20260503050529 | 44 | 322 | 0.0 | 4.0 | 0.00 | 0.19 | 0.00 | 91 | 1010.1 |
| 20260503050028 | 45 | 322 | 1.0 | 3.0 | 0.00 | 0.19 | 0.00 | 91 | 1010.1 |
| 20260503045528 | 45 | 322 | 0.0 | 2.0 | 0.00 | 0.19 | 0.00 | 91 | 1010.2 |
| 20260503045027 | 45 | 322 | 0.0 | 2.0 | 0.00 | 0.19 | 0.00 | 91 | 1010.4 |
| 20260503044526 | 45 | 322 | 0.0 | 2.0 | 0.00 | 0.19 | 0.00 | 91 | 1010.5 |
| 20260503044025 | 45 | 359 | 0.0 | 1.0 | 0.00 | 0.19 | 0.00 | 91 | 1010.5 |
| 20260503043524 | 45 | 322 | 0.0 | 4.0 | 0.00 | 0.19 | 0.00 | 91 | 1010.6 |
| 20260503043025 | 46 | 322 | 0.0 | 4.0 | 0.00 | 0.19 | 0.00 | 91 | 1010.7 |
| 20260503042524 | 46 | 322 | 0.0 | 3.0 | 0.00 | 0.19 | 0.00 | 91 | 1010.7 |
| 20260503042023 | 46 | 322 | 0.0 | 4.0 | 0.00 | 0.19 | 0.00 | 91 | 1010.7 |
| 20260503041522 | 46 | 322 | 1.0 | 4.0 | 0.00 | 0.19 | 0.00 | 91 | 1010.8 |
| 20260503041024 | 46 | 17 | 0.0 | 2.0 | 0.00 | 0.19 | 0.00 | 91 | 1010.8 |
| 20260503040520 | 46 | 17 | 0.0 | 1.0 | 0.00 | 0.19 | 0.00 | 91 | 1010.8 |
| 20260503040031 | 46 | 17 | 0.0 | 0.0 | 0.00 | 0.19 | 0.00 | 91 | 1010.8 |
| 20260503035520 | 46 | 16 | 0.0 | 0.0 | 0.00 | 0.19 | 0.19 | 91 | 1010.9 |
| 20260503035020 | 46 | 17 | 0.0 | 0.0 | 0.00 | 0.19 | 0.19 | 91 | 1010.9 |
| 20260503034520 | 46 | 17 | 0.0 | 2.0 | 0.00 | 0.19 | 0.19 | 91 | 1010.8 |
| 20260503034020 | 46 | 17 | 0.0 | 2.0 | 0.00 | 0.19 | 0.19 | 91 | 1011.0 |
| 20260503033519 | 46 | 17 | 0.0 | 2.0 | 0.00 | 0.19 | 0.19 | 91 | 1010.9 |
| 20260503033121 | 46 | 18 | 0.0 | 2.0 | 0.00 | 0.19 | 0.19 | 91 | 1010.9 |
| 20260503032519 | 46 | 18 | 0.0 | 2.0 | 0.00 | 0.19 | 0.19 | 91 | 1010.9 |
| 20260503032019 | 46 | 17 | 0.0 | 0.0 | 0.00 | 0.19 | 0.19 | 91 | 1010.8 |
| 20260503031519 | 46 | 17 | 0.0 | 0.0 | 0.00 | 0.19 | 0.19 | 91 | 1010.8 |
| 20260503031019 | 46 | 17 | 0.0 | 0.0 | 0.00 | 0.19 | 0.19 | 91 | 1010.9 |
| 20260503030518 | 46 | 17 | 0.0 | 1.0 | 0.00 | 0.19 | 0.19 | 91 | 1010.9 |
| 20260503030022 | 46 | 17 | 0.0 | 1.0 | 0.00 | 0.19 | 0.19 | 91 | 1010.9 |
| 20260503025518 | 47 | 17 | 0.0 | 1.0 | 0.00 | 0.19 | 0.19 | 91 | 1011.0 |
| 20260503025018 | 47 | 17 | 0.0 | 2.0 | 0.00 | 0.19 | 0.19 | 91 | 1011.0 |
| 20260503024518 | 47 | 17 | 0.0 | 2.0 | 0.00 | 0.19 | 0.19 | 91 | 1011.1 |
| 20260503024018 | 47 | 17 | 0.0 | 1.0 | 0.00 | 0.19 | 0.19 | 91 | 1011.1 |
| 20260503023518 | 47 | 18 | 0.0 | 2.0 | 0.00 | 0.19 | 0.19 | 91 | 1011.2 |
| 20260503023018 | 47 | 17 | 0.0 | 2.0 | 0.00 | 0.19 | 0.19 | 91 | 1011.2 |
| 20260503022517 | 47 | 17 | 0.0 | 1.0 | 0.00 | 0.19 | 0.19 | 91 | 1011.2 |
| 20260503022017 | 47 | 17 | 0.0 | 1.0 | 0.00 | 0.19 | 0.19 | 91 | 1011.2 |
| 20260503021517 | 47 | 17 | 0.0 | 1.0 | 0.00 | 0.19 | 0.19 | 91 | 1011.2 |
| 20260503021017 | 47 | 18 | 0.0 | 2.0 | 0.00 | 0.19 | 0.19 | 91 | 1011.2 |
| 20260503020517 | 47 | 17 | 0.0 | 2.0 | 0.00 | 0.19 | 0.19 | 91 | 1011.3 |
| 20260503020017 | 47 | 17 | 0.0 | 2.0 | 0.00 | 0.19 | 0.19 | 91 | 1011.3 |
| 20260503015517 | 47 | 18 | 0.0 | 1.0 | 0.00 | 0.19 | 0.19 | 91 | 1011.1 |
| 20260503015020 | 47 | 17 | 0.0 | 2.0 | 0.00 | 0.19 | 0.19 | 91 | 1011.1 |
| 20260503014516 | 47 | 18 | 0.0 | 3.0 | 0.00 | 0.19 | 0.19 | 90 | 1010.9 |
| 20260503014016 | 47 | 17 | 1.0 | 3.0 | 0.00 | 0.19 | 0.19 | 91 | 1010.8 |
| 20260503013516 | 47 | 325 | 0.0 | 2.0 | 0.00 | 0.19 | 0.19 | 91 | 1010.9 |
| 20260503013018 | 47 | 325 | 0.0 | 2.0 | 0.00 | 0.19 | 0.19 | 90 | 1010.9 |
| 20260503012516 | 48 | 316 | 0.0 | 2.0 | 0.00 | 0.19 | 0.19 | 90 | 1010.8 |
| 20260503012016 | 48 | 316 | 0.0 | 2.0 | 0.00 | 0.19 | 0.19 | 90 | 1010.8 |
| 20260503011521 | 48 | 317 | 0.0 | 1.0 | 0.00 | 0.19 | 0.19 | 90 | 1011.0 |
| 20260503011016 | 48 | 317 | 0.0 | 1.0 | 0.00 | 0.19 | 0.19 | 90 | 1011.1 |
| 20260503010517 | 48 | 317 | 0.0 | 0.0 | 0.00 | 0.19 | 0.19 | 90 | 1011.2 |
| 20260503010018 | 48 | 316 | 0.0 | 0.0 | 0.00 | 0.19 | 0.19 | 90 | 1011.5 |
| 20260503005514 | 48 | 317 | 0.0 | 0.0 | 0.00 | 0.19 | 0.19 | 90 | 1011.4 |
| 20260503005015 | 48 | 317 | 0.0 | 0.0 | 0.00 | 0.19 | 0.19 | 90 | 1011.3 |
| 20260503004517 | 48 | 317 | 0.0 | 0.0 | 0.00 | 0.19 | 0.19 | 90 | 1011.4 |
| 20260503004014 | 48 | 317 | 0.0 | 0.0 | 0.00 | 0.19 | 0.19 | 90 | 1011.1 |
| 20260503003514 | 49 | 359 | 0.0 | 0.0 | 0.00 | 0.19 | 0.19 | 90 | 1011.2 |
| 20260503003014 | 49 | 359 | 0.0 | 2.0 | 0.00 | 0.19 | 0.19 | 90 | 1011.2 |
| 20260503002517 | 49 | 317 | 0.0 | 2.0 | 0.00 | 0.19 | 0.19 | 90 | 1011.3 |
| 20260503002017 | 49 | 317 | 0.0 | 1.0 | 0.00 | 0.19 | 0.19 | 90 | 1011.2 |
| 20260503001514 | 49 | 316 | 0.0 | 1.0 | 0.00 | 0.19 | 0.19 | 90 | 1011.3 |
| 20260503001014 | 49 | 316 | 0.0 | 1.0 | 0.00 | 0.19 | 0.19 | 90 | 1011.3 |
| 20260503000513 | 49 | 317 | 0.0 | 0.0 | 0.00 | 0.19 | 0.19 | 90 | 1011.2 |
| 20260503000013 | 49 | 316 | 0.0 | 0.0 | 0.00 | 0.19 | 0.19 | 90 | 1011.0 |
| 20260502235512 | 49 | 359 | 0.0 | 0.0 | 0.00 | 0.19 | 0.19 | 90 | 1011.0 |
| 20260502235012 | 49 | 317 | 0.0 | 0.0 | 0.01 | 0.19 | 0.19 | 89 | 1010.9 |
| 20260502234522 | 49 | 317 | 0.0 | 2.0 | 0.01 | 0.19 | 0.19 | 89 | 1011.0 |
| 20260502234013 | 49 | 359 | 0.0 | 1.0 | 0.01 | 0.19 | 0.19 | 89 | 1010.9 |
| 20260502233513 | 49 | 317 | 0.0 | 2.0 | 0.01 | 0.19 | 0.19 | 89 | 1010.8 |
| 20260502233014 | 49 | 317 | 0.0 | 2.0 | 0.01 | 0.19 | 0.19 | 89 | 1010.8 |
| 20260502232512 | 49 | 317 | 0.0 | 0.0 | 0.01 | 0.19 | 0.19 | 89 | 1010.8 |
| 20260502232112 | 49 | 317 | 0.0 | 0.0 | 0.01 | 0.19 | 0.19 | 89 | 1010.6 |
| 20260502231510 | 49 | 316 | 0.0 | 0.0 | 0.01 | 0.19 | 0.19 | 89 | 1010.6 |
| 20260502231009 | 49 | 316 | 0.0 | 0.0 | 0.01 | 0.19 | 0.19 | 89 | 1010.6 |
| 20260502230509 | 49 | 316 | 0.0 | 1.0 | 0.01 | 0.19 | 0.19 | 89 | 1010.6 |
| 20260502230009 | 49 | 316 | 0.0 | 1.0 | 0.01 | 0.19 | 0.19 | 89 | 1010.5 |
| 20260502225508 | 49 | 316 | 0.0 | 1.0 | 0.01 | 0.18 | 0.18 | 89 | 1010.5 |
| 20260502225008 | 49 | 317 | 0.0 | 1.0 | 0.02 | 0.18 | 0.18 | 89 | 1010.5 |
| 20260502224508 | 49 | 316 | 0.0 | 1.0 | 0.03 | 0.18 | 0.18 | 88 | 1010.5 |
| 20260502224009 | 49 | 317 | 0.0 | 1.0 | 0.04 | 0.18 | 0.18 | 88 | 1010.5 |
| 20260502223508 | 49 | 359 | 0.0 | 1.0 | 0.04 | 0.18 | 0.18 | 88 | 1010.5 |
| 20260502223008 | 50 | 316 | 0.0 | 1.0 | 0.04 | 0.18 | 0.18 | 88 | 1010.5 |
| 20260502222508 | 50 | 316 | 0.0 | 2.0 | 0.04 | 0.18 | 0.18 | 88 | 1010.5 |
| 20260502222009 | 49 | 316 | 0.0 | 2.0 | 0.04 | 0.18 | 0.18 | 87 | 1010.6 |
| 20260502221507 | 50 | 316 | 0.0 | 1.0 | 0.04 | 0.18 | 0.18 | 87 | 1010.6 |
| 20260502221007 | 50 | 359 | 0.0 | 1.0 | 0.04 | 0.18 | 0.18 | 87 | 1010.6 |
| 20260502220507 | 50 | 359 | 0.0 | 1.0 | 0.04 | 0.18 | 0.18 | 86 | 1010.6 |
| 20260502220011 | 50 | 317 | 0.0 | 1.0 | 0.04 | 0.18 | 0.18 | 86 | 1010.7 |
| 20260502215507 | 51 | 359 | 0.0 | 0.0 | 0.02 | 0.16 | 0.16 | 85 | 1010.8 |
| 20260502215007 | 51 | 317 | 0.0 | 1.0 | 0.02 | 0.16 | 0.16 | 85 | 1010.7 |
| 20260502214519 | 51 | 316 | 0.0 | 2.0 | 0.01 | 0.15 | 0.15 | 84 | 1010.8 |
| 20260502214011 | 51 | 316 | 0.0 | 2.0 | 0.00 | 0.14 | 0.14 | 83 | 1010.6 |
| 20260502213507 | 51 | 317 | 0.0 | 0.0 | 0.00 | 0.14 | 0.14 | 83 | 1010.5 |
| 20260502213007 | 51 | 317 | 0.0 | 0.0 | 0.00 | 0.14 | 0.14 | 83 | 1010.5 |
| 20260502212508 | 51 | 316 | 0.0 | 1.0 | 0.00 | 0.14 | 0.14 | 82 | 1010.5 |
| 20260502212107 | 51 | 317 | 0.0 | 2.0 | 0.00 | 0.14 | 0.14 | 82 | 1010.5 |
| 20260502211512 | 51 | 316 | 0.0 | 2.0 | 0.00 | 0.14 | 0.14 | 81 | 1010.5 |
| 20260502211005 | 51 | 317 | 0.0 | 3.0 | 0.00 | 0.14 | 0.14 | 81 | 1010.4 |
| 20260502210506 | 51 | 316 | 1.0 | 4.0 | 0.00 | 0.14 | 0.14 | 81 | 1010.4 |
| 20260502210018 | 52 | 317 | 0.0 | 4.0 | 0.00 | 0.14 | 0.14 | 81 | 1010.3 |
| 20260502205505 | 52 | 315 | 1.0 | 4.0 | 0.00 | 0.14 | 0.14 | 81 | 1010.5 |
| 20260502205007 | 52 | 316 | 0.0 | 1.0 | 0.00 | 0.14 | 0.14 | 81 | 1010.5 |
| 20260502204510 | 51 | 316 | 0.0 | 2.0 | 0.00 | 0.14 | 0.14 | 81 | 1010.5 |
| 20260502204005 | 51 | 316 | 0.0 | 5.0 | 0.00 | 0.14 | 0.14 | 81 | 1010.5 |
| 20260502203504 | 51 | 316 | 2.0 | 5.0 | 0.00 | 0.14 | 0.14 | 81 | 1010.4 |
| 20260502203007 | 51 | 316 | 0.0 | 4.0 | 0.00 | 0.14 | 0.14 | 80 | 1010.4 |
| 20260502202504 | 51 | 316 | 2.0 | 4.0 | 0.00 | 0.14 | 0.14 | 80 | 1010.4 |
| 20260502202004 | 51 | 316 | 1.0 | 4.0 | 0.00 | 0.14 | 0.14 | 80 | 1010.3 |
| 20260502201507 | 52 | 291 | 2.0 | 7.0 | 0.00 | 0.14 | 0.14 | 79 | 1010.5 |
| 20260502201003 | 52 | 291 | 2.0 | 8.0 | 0.00 | 0.14 | 0.14 | 79 | 1010.5 |
| 20260502200506 | 52 | 317 | 4.0 | 8.0 | 0.00 | 0.14 | 0.14 | 78 | 1010.5 |
| 20260502200003 | 52 | 313 | 2.0 | 9.0 | 0.00 | 0.14 | 0.14 | 76 | 1010.7 |
| 20260502195506 | 53 | 315 | 4.0 | 9.0 | 0.00 | 0.14 | 0.14 | 75 | 1010.5 |
| 20260502195003 | 54 | 271 | 2.0 | 9.0 | 0.00 | 0.14 | 0.14 | 73 | 1010.5 |
| 20260502194503 | 55 | 340 | 3.0 | 9.0 | 0.00 | 0.14 | 0.14 | 71 | 1010.6 |
| 20260502194003 | 55 | 266 | 3.0 | 8.0 | 0.00 | 0.14 | 0.14 | 67 | 1010.6 |
| 20260502193503 | 56 | 218 | 1.0 | 7.0 | 0.00 | 0.14 | 0.14 | 62 | 1010.5 |
| 20260502193003 | 56 | 234 | 1.0 | 7.0 | 0.00 | 0.14 | 0.14 | 63 | 1010.5 |
| 20260502192503 | 56 | 190 | 1.0 | 8.0 | 0.00 | 0.14 | 0.14 | 65 | 1010.4 |
| 20260502192003 | 56 | 194 | 4.0 | 12.0 | 0.00 | 0.14 | 0.14 | 63 | 1010.4 |
| 20260502191600 | 56 | 131 | 3.0 | 12.0 | 0.00 | 0.14 | 0.14 | 63 | 1010.4 |
| 20260502191501 | 56 | 207 | 5.0 | 12.0 | 0.00 | 0.14 | 0.14 | 63 | 1010.4 |
| 20260502191100 | 56 | 194 | 4.0 | 10.0 | 0.00 | 0.14 | 0.14 | 64 | 1010.5 |
| 20260502190600 | 57 | 171 | 3.0 | 10.0 | 0.00 | 0.14 | 0.14 | 64 | 1010.4 |
| 20260502190100 | 57 | 210 | 1.0 | 8.0 | 0.00 | 0.14 | 0.14 | 65 | 1010.5 |
| 20260502185559 | 57 | 225 | 4.0 | 9.0 | 0.00 | 0.14 | 0.14 | 64 | 1010.5 |
| 20260502185059 | 57 | 57 | 1.0 | 9.0 | 0.00 | 0.14 | 0.14 | 65 | 1010.5 |
| 20260502184605 | 57 | 155 | 1.0 | 14.0 | 0.00 | 0.14 | 0.14 | 66 | 1010.6 |
| 20260502184058 | 57 | 108 | 5.0 | 14.0 | 0.00 | 0.14 | 0.14 | 64 | 1010.7 |
| 20260502183557 | 57 | 193 | 4.0 | 11.0 | 0.00 | 0.14 | 0.14 | 65 | 1010.8 |
| 20260502183056 | 57 | 209 | 5.0 | 11.0 | 0.00 | 0.14 | 0.14 | 64 | 1010.8 |
| 20260502182556 | 57 | 166 | 4.0 | 15.0 | 0.00 | 0.14 | 0.14 | 66 | 1010.9 |
| 20260502182056 | 56 | 127 | 3.0 | 15.0 | 0.00 | 0.14 | 0.14 | 66 | 1010.9 |
| 20260502181555 | 56 | 172 | 4.0 | 12.0 | 0.00 | 0.14 | 0.14 | 65 | 1011.0 |
| 20260502181057 | 56 | 241 | 6.0 | 12.0 | 0.00 | 0.14 | 0.14 | 65 | 1010.9 |